Volver al catálogo

FENGYUN 1C DEB

ActivoSSO
NORAD 29877·DEBRIS·🇨🇳 China

Lanzado May 10, 1999 desde Taiyuan Satellite Launch Center

Loading…

Próximos Pases (próximas 24 horas)

TLE

ActualizadoSource: Space-Track

Época: Sep 14, 2026, 00:01 UTC

1 29877U 99025FX  26257.00104921  .00000565  00000-0  25483-3 0  9998
2 29877  98.5409 259.9327 0046990 134.4707 281.7381 14.25323786 18898

Sigue FENGYUN 1C DEB en tiempo real con AllMySat

Download on the App Store